Location: Unspecified
(52.4292°N, 19.3359°E)
Time: 22:53:30
(UTC+02:00)

SR - Pass Details

Date: 28 May 2024
Orbit: 580 x 858 km, 66.7° (Epoch: 12 June)

Event Time Altitude Azimuth Distance (km) Brightness Sun altitude
Rises 19:02:10 0° 254° (WSW) 3,138 ? 13.7°
Reaches altitude 10° 19:04:53 10° 265° (W) 2,169 ? 13.3°
Maximum altitude 19:09:09 29° 326° (NW) 1,216 ? 12.7°
Drops below altitude 10° 19:13:11 10° 27° (NNE) 2,029 ? 12.1°
Sets 19:15:38 0° 39° (NE) 2,901 ? 11.8°
